EW9204 Weather Reports


Display with metric or nautical units.
time (UTC)temp
F
wind
direction
speed
MPH
gust
MPH
rain 1hr
in
rain 24hr
in
rain mn
in
humidity
%
barometer
mb
20260906231538 64 51 1.0 2.0 0.00 0.00 0.00 87 1017.0
20260906231020 65 338 0.0 2.0 0.00 0.00 0.00 87 1016.9
20260906230515 65 76 1.0 2.0 0.00 0.00 0.00 86 1016.9
20260906230042 65 126 1.0 2.0 0.00 0.00 0.00 85 1016.8
20260906225520 66 9 0.0 2.0 0.00 0.00 0.00 85 1016.9
20260906225020 66 51 0.0 2.0 0.00 0.00 0.00 84 1016.9
20260906224539 67 51 0.0 2.0 0.00 0.00 0.00 83 1016.8
20260906224019 67 59 1.0 2.0 0.00 0.00 0.00 83 1016.9
20260906223517 67 0 0.0 2.0 0.00 0.00 0.00 81 1016.9
20260906223042 67 178 0.0 4.0 0.00 0.00 0.00 80 1016.9
20260906222519 67 0 0.0 4.0 0.00 0.00 0.00 80 1016.9
20260906222020 67 185 0.0 4.0 0.00 0.00 0.00 80 1016.9
20260906221539 67 108 1.0 4.0 0.00 0.00 0.00 80 1016.9
20260906221020 67 93 1.0 5.0 0.00 0.00 0.00 80 1016.8
20260906220519 67 72 1.0 5.0 0.00 0.00 0.00 80 1016.7
20260906220040 67 34 1.0 5.0 0.00 0.00 0.00 80 1016.7
20260906215516 67 22 1.0 5.0 0.00 0.00 0.00 80 1016.6
20260906215019 67 76 1.0 5.0 0.00 0.00 0.00 80 1016.5
20260906214543 67 314 1.0 4.0 0.00 0.00 0.00 80 1016.5
20260906214019 67 61 1.0 4.0 0.00 0.00 0.00 81 1016.5
20260906213516 67 291 0.0 4.0 0.00 0.00 0.00 82 1016.5
20260906213040 67 0 1.0 4.0 0.00 0.00 0.00 82 1016.6
20260906212520 67 144 1.0 7.0 0.00 0.00 0.00 82 1016.4
20260906212017 67 137 2.0 7.0 0.00 0.00 0.00 81 1016.5
20260906211547 67 41 1.0 5.0 0.00 0.00 0.00 81 1016.5
20260906211021 67 131 1.0 6.0 0.00 0.00 0.00 80 1016.4
20260906210517 67 119 2.0 7.0 0.00 0.00 0.00 80 1016.3
20260906210050 68 196 2.0 8.0 0.00 0.00 0.00 80 1016.2
20260906205518 68 93 2.0 8.0 0.00 0.00 0.00 79 1016.2
20260906205016 68 93 4.0 8.0 0.00 0.00 0.00 80 1016.2
20260906204549 68 55 2.0 7.0 0.00 0.00 0.00 80 1016.2
20260906204020 68 346 1.0 11.0 0.00 0.00 0.00 79 1016.3
20260906203521 68 121 2.0 11.0 0.00 0.00 0.00 78 1016.2
20260906203039 69 113 2.0 7.0 0.00 0.00 0.00 77 1016.2
20260906202518 70 47 1.0 9.0 0.00 0.00 0.00 76 1016.3
20260906202019 71 339 2.0 10.0 0.00 0.00 0.00 77 1016.2
20260906201547 71 195 3.0 10.0 0.00 0.00 0.00 76 1016.1
20260906201022 70 75 2.0 8.0 0.00 0.00 0.00 75 1016.1
20260906200519 71 306 2.0 8.0 0.00 0.00 0.00 75 1016.0
20260906200040 71 146 1.0 8.0 0.00 0.00 0.00 74 1015.8
20260906195517 71 43 2.0 9.0 0.00 0.00 0.00 75 1015.9
20260906195024 71 129 2.0 9.0 0.00 0.00 0.00 74 1015.9
20260906194543 71 155 4.0 9.0 0.00 0.00 0.00 75 1015.9
20260906194025 71 0 2.0 9.0 0.00 0.00 0.00 74 1015.9
20260906193519 71 157 3.0 9.0 0.00 0.00 0.00 76 1016.0
20260906193040 71 294 2.0 8.0 0.00 0.00 0.00 75 1016.0
20260906192520 71 149 3.0 8.0 0.00 0.00 0.00 74 1016.0
20260906192024 70 173 3.0 8.0 0.00 0.00 0.00 76 1015.9
20260906191540 70 93 1.0 11.0 0.00 0.00 0.00 76 1015.9
20260906191024 70 48 3.0 11.0 0.00 0.00 0.00 77 1016.0
20260906190518 70 126 4.0 10.0 0.00 0.00 0.00 78 1016.0
20260906190041 70 41 2.0 7.0 0.00 0.00 0.00 77 1016.1
20260906185518 70 61 2.0 8.0 0.00 0.00 0.00 77 1016.1
20260906185020 70 111 1.0 8.0 0.00 0.00 0.00 76 1016.0
20260906184544 70 57 1.0 7.0 0.00 0.00 0.00 77 1016.0
20260906184019 71 161 4.0 7.0 0.00 0.00 0.00 74 1016.0
20260906183519 71 195 3.0 9.0 0.00 0.00 0.00 75 1016.1
20260906183057 72 93 2.0 9.0 0.00 0.00 0.00 78 1016.2
20260906182518 71 25 2.0 8.0 0.00 0.00 0.00 75 1016.2
20260906182019 71 205 3.0 7.0 0.00 0.00 0.00 74 1016.1
20260906181543 70 79 2.0 6.0 0.00 0.00 0.00 77 1016.3
20260906181020 70 162 3.0 10.0 0.00 0.00 0.00 74 1016.4
20260906180519 71 219 4.0 10.0 0.00 0.00 0.00 70 1016.3
20260906175522 72 49 3.0 7.0 0.00 0.00 0.00 66 1016.4
20260906175019 72 78 2.0 8.0 0.00 0.00 0.00 66 1016.5
20260906174538 72 280 4.0 8.0 0.00 0.00 0.00 65 1016.5
20260906174019 72 16 2.0 9.0 0.00 0.00 0.00 67 1016.4
20260906173517 71 282 3.0 9.0 0.00 0.00 0.00 68 1016.4
20260906173044 71 11 1.0 5.0 0.00 0.00 0.00 70 1016.4
20260906172517 71 0 1.0 8.0 0.00 0.00 0.00 69 1016.5
20260906172020 71 301 2.0 8.0 0.00 0.00 0.00 68 1016.6
20260906171550 71 265 3.0 10.0 0.00 0.00 0.00 67 1016.6
20260906171020 72 51 3.0 11.0 0.00 0.00 0.00 68 1016.6
20260906170520 72 302 4.0 11.0 0.00 0.00 0.00 69 1016.6
20260906170045 71 332 4.0 11.0 0.00 0.00 0.00 71 1016.4
20260906165520 71 39 2.0 11.0 0.00 0.00 0.00 73 1016.5
20260906165020 71 9 2.0 8.0 0.00 0.00 0.00 73 1016.6
20260906164541 71 74 3.0 10.0 0.00 0.00 0.00 74 1016.7
20260906164019 71 265 4.0 10.0 0.00 0.00 0.00 72 1016.8
20260906163518 70 137 1.0 8.0 0.00 0.00 0.00 74 1016.8
20260906163038 70 83 1.0 6.0 0.00 0.00 0.00 76 1016.8
20260906162517 69 47 2.0 5.0 0.00 0.00 0.00 77 1016.7
20260906162021 69 316 1.0 6.0 0.00 0.00 0.00 77 1016.7
20260906161552 69 38 1.0 6.0 0.00 0.00 0.00 77 1016.7
20260906161019 69 86 2.0 7.0 0.00 0.00 0.00 79 1016.7
20260906160520 68 51 2.0 7.0 0.00 0.00 0.00 78 1016.8
20260906160039 68 338 2.0 6.0 0.00 0.00 0.00 78 1016.9
20260906155519 68 24 0.0 6.0 0.00 0.00 0.00 80 1016.9
20260906155019 68 113 2.0 5.0 0.00 0.00 0.00 81 1016.9
20260906154547 67 344 1.0 4.0 0.00 0.00 0.00 82 1016.9
20260906154019 67 137 1.0 4.0 0.00 0.00 0.00 82 1017.0
20260906153517 67 126 1.0 5.0 0.00 0.00 0.00 81 1017.0
20260906153057 67 131 1.0 6.0 0.00 0.00 0.00 82 1016.9
20260906152522 67 61 2.0 6.0 0.00 0.00 0.00 81 1017.0
20260906152020 67 51 2.0 6.0 0.00 0.00 0.00 83 1017.0
20260906151542 67 51 2.0 11.0 0.00 0.00 0.00 81 1017.0
20260906151017 67 93 2.0 11.0 0.00 0.00 0.00 80 1017.0
20260906150519 68 32 4.0 11.0 0.00 0.00 0.00 77 1017.1
20260906150038 69 9 3.0 9.0 0.00 0.00 0.00 77 1017.0
20260906145519 68 339 3.0 9.0 0.00 0.00 0.00 77 1017.0
20260906145018 68 71 3.0 9.0 0.00 0.00 0.00 78 1017.1
20260906144540 68 350 3.0 10.0 0.00 0.00 0.00 77 1017.1
20260906144016 68 321 2.0 12.0 0.00 0.00 0.00 77 1017.1
20260906143519 69 41 4.0 12.0 0.00 0.00 0.00 76 1017.0
20260906143037 69 107 6.0 15.0 0.00 0.00 0.00 76 1016.8
20260906142519 68 63 7.0 15.0 0.00 0.00 0.00 77 1016.8
20260906142023 68 86 6.0 15.0 0.00 0.00 0.00 77 1017.0
20260906141536 69 102 4.0 12.0 0.00 0.00 0.00 78 1017.0
20260906141017 68 301 4.0 10.0 0.00 0.00 0.00 79 1016.9
20260906140518 67 38 2.0 10.0 0.00 0.00 0.00 80 1016.8
20260906140036 67 26 3.0 10.0 0.00 0.00 0.00 80 1016.8
20260906135519 67 38 2.0 9.0 0.00 0.00 0.00 80 1016.7
20260906135016 67 34 2.0 9.0 0.00 0.00 0.00 81 1016.8
20260906134533 67 9 3.0 7.0 0.00 0.00 0.00 80 1016.8
20260906134016 67 309 2.0 7.0 0.00 0.00 0.00 81 1017.0
20260906133517 67 323 2.0 8.0 0.00 0.00 0.00 80 1016.8
20260906133044 67 298 2.0 8.0 0.00 0.00 0.00 80 1016.6
20260906132518 67 286 2.0 4.0 0.00 0.00 0.00 83 1016.7
20260906132017 67 298 1.0 4.0 0.00 0.00 0.00 84 1016.7
20260906131553 67 329 1.0 4.0 0.00 0.00 0.00 83 1016.8
20260906131021 67 0 2.0 4.0 0.00 0.00 0.00 85 1016.8
20260906130519 67 178 2.0 4.0 0.00 0.00 0.00 86 1016.5
20260906130051 66 9 1.0 3.0 0.00 0.00 0.00 89 1016.7
20260906125519 65 0 1.0 4.0 0.00 0.00 0.00 90 1016.6
20260906125016 65 44 1.0 4.0 0.00 0.00 0.00 90 1016.5
20260906124539 64 317 2.0 4.0 0.00 0.00 0.00 92 1016.3
20260906124018 64 0 1.0 4.0 0.00 0.00 0.00 93 1016.2
20260906123518 64 309 1.0 4.0 0.00 0.00 0.00 94 1016.0
20260906123040 63 325 1.0 4.0 0.00 0.00 0.00 95 1016.0
20260906122519 63 334 1.0 4.0 0.00 0.00 0.00 95 1015.9
20260906122019 63 41 2.0 5.0 0.00 0.00 0.00 95 1015.9
20260906121539 62 0 2.0 5.0 0.00 0.00 0.00 95 1015.9
20260906121024 62 43 1.0 4.0 0.00 0.00 0.00 95 1015.9
20260906120518 62 132 1.0 4.0 0.00 0.00 0.00 95 1015.8
20260906120034 62 78 1.0 4.0 0.00 0.00 0.00 95 1015.8
20260906115516 62 338 2.0 4.0 0.00 0.00 0.00 96 1015.8
20260906115017 62 13 1.0 5.0 0.00 0.00 0.00 96 1015.8
20260906114548 62 24 2.0 5.0 0.00 0.00 0.00 96 1015.7
20260906114020 61 9 1.0 5.0 0.00 0.00 0.00 96 1015.6
20260906113519 61 24 2.0 5.0 0.00 0.00 0.00 96 1015.4
20260906113040 61 344 1.0 3.0 0.00 0.00 0.00 96 1015.3
20260906112519 61 0 0.0 3.0 0.00 0.00 0.00 95 1015.2
20260906112017 61 85 1.0 4.0 0.00 0.00 0.00 96 1015.1
20260906111543 61 0 0.0 4.0 0.00 0.00 0.00 96 1015.1
20260906111018 61 111 1.0 4.0 0.00 0.00 0.00 96 1015.1
20260906110517 61 93 1.0 4.0 0.00 0.00 0.00 96 1015.0
20260906110038 61 83 1.0 4.0 0.00 0.00 0.00 96 1014.9
20260906105517 61 41 1.0 4.0 0.00 0.00 0.00 96 1014.9
20260906105022 60 51 1.0 3.0 0.00 0.00 0.00 95 1014.7
20260906104537 60 30 1.0 3.0 0.00 0.00 0.00 95 1014.6
20260906104019 60 38 1.0 2.0 0.00 0.00 0.00 95 1014.6
20260906103520 60 9 1.0 2.0 0.00 0.00 0.00 95 1014.5
20260906103040 61 338 1.0 2.0 0.00 0.00 0.00 95 1014.3
20260906102519 61 51 0.0 2.0 0.00 0.00 0.00 95 1014.2
20260906102016 61 67 1.0 2.0 0.00 0.00 0.00 95 1014.2
20260906101537 61 80 1.0 2.0 0.00 0.00 0.00 95 1014.3
20260906101017 61 0 0.0 1.0 0.00 0.00 0.00 95 1014.3
20260906100520 62 0 0.0 2.0 0.00 0.00 0.00 95 1014.2
20260906100038 62 0 0.0 3.0 0.00 0.00 0.00 95 1014.3
20260906095517 62 9 1.0 4.0 0.00 0.00 0.00 95 1014.3
20260906095019 62 344 0.0 4.0 0.00 0.00 0.00 95 1014.3
20260906094544 62 9 1.0 4.0 0.00 0.00 0.00 95 1014.3
20260906094020 62 51 0.0 2.0 0.00 0.00 0.00 95 1014.3
20260906093518 62 9 0.0 2.0 0.00 0.00 0.00 95 1014.2
20260906093037 62 0 0.0 2.0 0.00 0.00 0.00 95 1014.1
20260906092518 61 9 0.0 2.0 0.00 0.00 0.00 95 1014.0
20260906092018 61 334 0.0 2.0 0.00 0.00 0.00 95 1013.9
20260906091539 61 30 0.0 2.0 0.00 0.00 0.00 95 1014.0
20260906091021 61 119 0.0 2.0 0.00 0.00 0.00 95 1013.9
20260906090519 61 51 1.0 2.0 0.00 0.00 0.00 95 1013.8
20260906090050 61 72 1.0 2.0 0.00 0.00 0.00 95 1013.7
20260906085519 61 51 0.0 2.0 0.00 0.00 0.00 95 1013.7
20260906085019 61 0 0.0 2.0 0.00 0.00 0.00 95 1013.8
20260906084539 61 51 0.0 2.0 0.00 0.00 0.00 95 1013.8
20260906084025 61 41 0.0 3.0 0.00 0.00 0.00 95 1013.7
20260906083518 61 51 1.0 3.0 0.00 0.00 0.00 94 1013.7
20260906083037 61 319 1.0 3.0 0.00 0.00 0.00 94 1013.6
20260906082516 61 93 0.0 2.0 0.00 0.00 0.00 94 1013.5
20260906082016 61 76 0.0 2.0 0.00 0.00 0.00 94 1013.3
20260906081533 61 93 0.0 2.0 0.00 0.00 0.00 94 1013.3
20260906081021 62 72 1.0 2.0 0.00 0.00 0.00 94 1013.4
20260906080516 62 0 0.0 2.0 0.00 0.00 0.00 94 1013.4
20260906080045 62 0 0.0 2.0 0.00 0.00 0.00 94 1013.5
20260906075517 62 0 1.0 2.0 0.00 0.00 0.00 94 1013.6
20260906075017 62 309 0.0 2.0 0.00 0.00 0.00 94 1013.7
20260906074538 62 0 0.0 3.0 0.00 0.00 0.00 94 1013.8
20260906074018 63 334 1.0 3.0 0.00 0.00 0.00 94 1013.7
20260906073517 63 93 0.0 3.0 0.00 0.00 0.00 94 1013.6
20260906073034 63 61 1.0 3.0 0.00 0.00 0.00 94 1013.6
20260906072518 63 93 1.0 3.0 0.00 0.00 0.00 94 1013.5
20260906072016 63 0 1.0 4.0 0.00 0.00 0.00 94 1013.5
20260906071540 63 344 1.0 4.0 0.00 0.00 0.00 94 1013.5
20260906071020 63 9 0.0 4.0 0.00 0.00 0.00 94 1013.5
20260906070515 63 0 1.0 5.0 0.00 0.00 0.00 94 1013.5
20260906070039 63 69 1.0 5.0 0.00 0.00 0.00 94 1013.4
20260906065516 63 55 0.0 3.0 0.00 0.00 0.00 94 1013.5
20260906065018 63 26 1.0 3.0 0.00 0.00 0.00 94 1013.5
20260906064534 63 303 1.0 4.0 0.00 0.00 0.00 95 1013.5
20260906064017 63 325 1.0 4.0 0.00 0.00 0.00 95 1013.3
20260906063516 63 9 1.0 3.0 0.00 0.00 0.00 95 1013.6
20260906063037 63 34 0.0 3.0 0.00 0.00 0.00 95 1013.6
20260906062521 63 51 1.0 3.0 0.00 0.00 0.00 95 1013.6
20260906062019 63 0 1.0 3.0 0.00 0.00 0.00 94 1013.7
20260906061546 63 342 1.0 3.0 0.00 0.00 0.00 94 1013.7
20260906061020 63 9 0.0 2.0 0.00 0.00 0.00 94 1013.7
20260906060521 63 334 1.0 2.0 0.00 0.00 0.00 94 1013.8
20260906060046 63 51 0.0 2.0 0.00 0.00 0.00 94 1013.7
20260906055517 63 93 1.0 2.0 0.00 0.00 0.00 94 1013.7
20260906055018 62 51 0.0 2.0 0.00 0.00 0.00 94 1013.7
20260906054542 62 93 0.0 2.0 0.00 0.00 0.00 94 1013.7
20260906054016 62 0 1.0 2.0 0.00 0.00 0.00 94 1013.8
20260906053516 62 51 1.0 2.0 0.00 0.00 0.00 94 1013.8
20260906053038 62 59 0.0 2.0 0.00 0.00 0.00 94 1013.7
20260906052519 62 26 1.0 2.0 0.00 0.00 0.00 93 1013.7
20260906052019 63 67 0.0 2.0 0.00 0.00 0.00 93 1013.6
20260906051540 63 93 0.0 3.0 0.00 0.00 0.00 93 1013.6
20260906051021 63 0 0.0 3.0 0.00 0.00 0.00 93 1013.6
20260906050522 63 325 1.0 3.0 0.00 0.00 0.00 94 1013.6
20260906050041 63 330 1.0 3.0 0.00 0.00 0.00 94 1013.6
20260906045521 63 330 0.0 2.0 0.00 0.00 0.00 94 1013.7
20260906045020 62 153 0.0 3.0 0.00 0.00 0.00 94 1013.7
20260906044541 62 334 0.0 3.0 0.00 0.00 0.00 94 1013.7
20260906044023 62 28 1.0 3.0 0.00 0.00 0.00 94 1013.7
20260906043519 61 9 0.0 2.0 0.00 0.00 0.00 93 1013.7
20260906043042 62 41 1.0 2.0 0.00 0.00 0.00 93 1013.7
20260906042518 62 93 0.0 2.0 0.00 0.00 0.00 93 1013.5
20260906042016 62 51 1.0 2.0 0.00 0.00 0.00 93 1013.7
20260906041538 62 0 1.0 3.0 0.00 0.00 0.00 93 1013.6
20260906041022 62 93 0.0 3.0 0.00 0.00 0.00 93 1013.7
20260906040521 62 341 1.0 3.0 0.00 0.00 0.00 93 1013.6
20260906040039 61 0 1.0 3.0 0.00 0.00 0.00 93 1013.6
20260906035520 62 9 1.0 3.0 0.00 0.00 0.00 92 1013.6
20260906035020 62 0 0.0 2.0 0.00 0.00 0.00 92 1013.6
20260906034554 62 51 0.0 2.0 0.00 0.00 0.00 92 1013.5
20260906034019 62 46 1.0 2.0 0.00 0.00 0.00 92 1013.5
20260906033518 62 0 0.0 2.0 0.00 0.00 0.00 92 1013.5
20260906033044 62 59 1.0 2.0 0.00 0.00 0.00 91 1013.5
20260906032517 62 51 1.0 2.0 0.00 0.00 0.00 91 1013.5
20260906032016 62 80 1.0 2.0 0.00 0.00 0.00 91 1013.4
20260906031540 62 34 1.0 2.0 0.00 0.00 0.00 90 1013.5
20260906031019 62 0 0.0 2.0 0.00 0.00 0.00 90 1013.3
20260906030521 63 330 1.0 2.0 0.00 0.00 0.00 90 1013.2
20260906030041 63 0 0.0 2.0 0.00 0.00 0.00 89 1013.2
20260906025522 63 9 0.0 2.0 0.00 0.00 0.00 89 1013.3
20260906025018 63 0 0.0 2.0 0.00 0.00 0.00 88 1013.3
20260906024543 63 34 0.0 2.0 0.00 0.00 0.00 88 1013.3
20260906024022 64 0 0.0 4.0 0.00 0.00 0.00 88 1013.3
20260906023518 64 0 0.0 4.0 0.00 0.00 0.00 88 1013.4
20260906023039 64 126 1.0 4.0 0.00 0.00 0.00 88 1013.2
20260906022520 64 83 0.0 2.0 0.00 0.00 0.00 88 1013.1
20260906022017 64 0 0.0 2.0 0.00 0.00 0.00 87 1013.0
20260906021544 64 9 0.0 2.0 0.00 0.00 0.00 87 1013.0
20260906021017 65 19 1.0 2.0 0.00 0.00 0.00 87 1013.1
20260906020519 65 26 1.0 2.0 0.00 0.00 0.00 87 1013.1
20260906020042 65 51 1.0 3.0 0.00 0.00 0.00 87 1013.1
20260906015517 65 59 1.0 3.0 0.00 0.00 0.00 87 1013.1
20260906015018 64 26 1.0 2.0 0.00 0.00 0.00 86 1013.0
20260906014548 64 64 1.0 2.0 0.00 0.00 0.00 87 1013.2
20260906014022 64 9 0.0 2.0 0.00 0.00 0.00 87 1013.2
20260906013521 64 22 0.0 2.0 0.00 0.00 0.00 88 1013.1
20260906013035 64 9 1.0 2.0 0.00 0.00 0.00 87 1013.2
20260906012519 64 41 0.0 2.0 0.00 0.00 0.00 86 1013.0
20260906012018 65 80 0.0 2.0 0.00 0.00 0.00 86 1013.0
20260906011538 65 51 0.0 2.0 0.00 0.00 0.00 85 1013.1
20260906011018 65 26 0.0 2.0 0.00 0.00 0.00 85 1012.9
20260906010517 65 26 0.0 2.0 0.00 0.00 0.00 84 1012.8
20260906010056 65 51 1.0 2.0 0.00 0.00 0.00 83 1012.7
20260906005518 66 51 1.0 2.0 0.00 0.00 0.00 82 1012.7
20260906005016 66 59 0.0 2.0 0.00 0.00 0.00 81 1012.6
20260906004549 66 51 1.0 2.0 0.00 0.00 0.00 80 1012.5
20260906004022 67 68 1.0 2.0 0.00 0.00 0.00 80 1012.4
20260906003521 67 59 1.0 4.0 0.00 0.00 0.00 79 1012.4
20260906003042 67 61 1.0 4.0 0.00 0.00 0.00 79 1012.4
20260906002520 67 86 1.0 4.0 0.00 0.00 0.00 78 1012.4
20260906002019 68 80 1.0 3.0 0.00 0.00 0.00 77 1012.4
20260906001558 68 111 1.0 3.0 0.00 0.00 0.00 76 1012.3
20260906001019 68 0 0.0 3.0 0.00 0.00 0.00 76 1012.2
20260906000519 68 93 0.0 4.0 0.00 0.00 0.00 77 1012.2
20260906000043 68 319 1.0 4.0 0.00 0.00 0.00 75 1012.2
20260905235517 69 0 0.0 3.0 0.00 0.00 0.00 76 1011.9
20260905235019 69 61 1.0 2.0 0.00 0.00 0.00 77 1012.0
20260905234540 69 80 1.0 2.0 0.00 0.00 0.00 75 1012.0
20260905234019 69 51 1.0 2.0 0.00 0.00 0.00 76 1012.0
20260905233521 70 93 0.0 2.0 0.00 0.00 0.00 74 1012.0
20260905233040 70 329 1.0 2.0 0.00 0.00 0.00 74 1012.1
20260905232523 70 9 0.0 3.0 0.00 0.00 0.00 74 1012.1
20260905232019 71 0 0.0 3.0 0.00 0.00 0.00 72 1011.9